FENGYUN 1C DEB, 32216

Orbit data source: Space-Track

FENGYUN 1C DEB, 32216 is space debris in SSO originally from a launch on Mon, 10 May 1999 UTC launched from the Taiyaun Space Center, China (TSC). Fengyun 1C debris stems from the Chinese weather satellite Fengyun-1C, which was intentionally destroyed by a Chinese anti-satellite missile in 2007. This event dramatically increased the amount of space debris, with thousands of trackable fragments posing hazards to satellites and human spaceflight. The Fengyun 1C debris cloud has become a focal point in discussions about space sustainability and the need for international regulations to prevent the creation of new debris.

Loading next visibility...
Identifier
32216, 1999-025CVN
Orbit
SSO
Country
Flag of CNCN / PRC
Related business
Manufacturer
Unknown
Mission
Spacecraft
Bus & Motor
Unknown
Mass
Unknown
Launch date (UTC)
1999-05-10 (27 years ago)
Launch vehicle
Unknown
Launch site
Taiyaun Space Center, China (TSC)
Object type
Payload
Rocket body
Debris
Shape & HBR
Unknown shape, 1.1 m
Radar Cross Section
Small (<0.1 m²)

Expand to show TLE details & history
Last TLE update: 3 months ago

TLE from 3 months ago
0 FENGYUN 1C DEB
1 32216U 99025CVN 25346.01192140  .00085177  00000-0  66030-2 0  9992
2 32216  99.5252  45.3242 0021592 268.8216  91.0528 15.00807152627256
Epoch: 2025-12-12T00:17Z
TLE epoch observation values (Epoch: 2025-12-12T00:17:10.008Z)
Latitude
-0.00007°
Longitude
-39.92715°
Altitude
567.71 km
Speed
7.577 km/s
True Right ascension
03h 01m 17s
True Declination
0° 00' 00"
Sunlit
Object was in full shadow at epoch
Visualization orbit readout
Latitude
Unknown
Longitude
Unknown
Altitude
Unknown
Speed
Unknown
Apparent Right ascension
Unknown
Apparent Declination
Unknown
Sunlit
N/A
Visualization observer readout
Local Sidereal Time
17:48:16
Azimuth
Unknown
Elevation
Unknown
Doppler factor
Unknown
Orbital elements
Apogee altitude
576.484 km
Perigee altitude
546.516 km
Semi-major axis
6,939.637 km
Eccentricity
0.00216
Inclination
99.5252°
RAAN
45.3242°
Arg. of periapsis
268.8216°
True anomaly
91.30017°
Mean anomaly
91.0528°
Eccentric anomaly
91.17649°
Mean motion
3.75438 °/min
Orbital period
95.89 mins
BSTAR
0.006603
Loading maneuver chart data...
Computing Atmospheric mass density...
Loading historical data...
Loading historical data...
Loading historical data...
Loading historical data...
Loading historical data...
Loading historical data...
Loading historical data...

Documentation

Showing up to 5 results
|